Regional Weather Roundup
Issued by NWS

Home | Current Version | Previous Version | Graphics & Text | Print | Product List | Glossary Off
Versions: 1 2 3 4 5 6 7 8 9 10 11 12 13 14 15 16 17 18 19 20 21 22 23 24 25 26 27 28 29 30 31 32 33 34 35 36 37 38 39 40 41 42 43 44 45 46 47 48 49 50

000
ASUS43 KLSX 210507
RWRMO

WEATHER SUMMARY FOR MISSOURI
NATIONAL WEATHER SERVICE SPRINGFIELD MO
1200 AM CDT SAT OCT 21 2017

NOTE: "FAIR" INDICATES FEW OR NO CLOUDS BELOW 12,000 FEET WITH NO
       SIGNIFICANT WEATHER AND/OR OBSTRUCTIONS TO VISIBILITY.
       CURRENT SKY AND/OR WEATHER CONDITIONS ARE NOT AVAILABLE FOR
       CHILLICOTHE AND FARMINGTON.

MOZ001>031-035>038-043-044-053-054-210600-
...NORTHERN AND WESTERN MISSOURI...

CITY           SKY/WX    TMP DP  RH WIND       PRES   REMARKS
KANSAS CTY INT PTCLDY    67  57  70 S22G31    29.85F
KANSAS C DTWN  PTCLDY    69  58  67 S23G32    29.87S
LEE`S SUMMIT   CLOUDY    65  58  78 S17G30    29.89F
ST JOSEPH      LGT RAIN  68  58  70 S17G26    29.82F
CHILLICOTHE      N/A     64  56  75 S8G20     29.91S
KIRKSVILLE     CLEAR     64  56  75 S13       29.95S

$$
MOZ066>068-077>081-088>096-101>105-210600-
...SOUTHWEST MISSOURI...

CITY           SKY/WX    TMP DP  RH WIND       PRES   REMARKS
SPRINGFIELD    PTCLDY    63  59  87 SE20G28   29.96F
JOPLIN         PTCLDY    63  59  87 S10       29.93F
BRANSON        PTCLDY    63  57  82 SE8       30.02S

$$
MOZ032>034-039>042-045>050-055>058-069>072-210600-
...CENTRAL MISSOURI...

CITY           SKY/WX    TMP DP  RH WIND       PRES   REMARKS
COLUMBIA       CLOUDY    63  55  75 S14       29.98S
JEFFERSON CITY MOCLDY    64  53  67 E6        29.98F
ROLLA          PTCLDY    63  53  70 S13       30.02S
SEDALIA        PTCLDY    66  60  81 S17G24    29.96R
WHITEMAN AFB   MOCLDY    64  58  80 S16G23    29.88F
WARRENSBURG    CLOUDY    63  55  77 SE13      29.91F
OSAGE BEACH    PTCLDY    65  56  72 S7        29.99S

$$
MOZ051-052-059>065-210600-
...EAST CENTRAL MISSOURI...

CITY           SKY/WX    TMP DP  RH WIND       PRES   REMARKS
ST LOUIS INTL  CLOUDY    67  52  58 SE7       30.04F
SPIRIT OF STL  CLOUDY    68  52  56 S5        30.02S
ST CHARLES     CLOUDY    65  52  62 SE8       30.04S

$$
MOZ072>076-082>087-097>100-106>115-210600-
...SOUTH CENTRAL AND SOUTHEAST MISSOURI...

CITY           SKY/WX    TMP DP  RH WIND       PRES   REMARKS
CAPE GIRARDEAU CLOUDY    60  49  66 S5        30.10F
FARMINGTON     CLOUDY    64  51  62 S14G22    30.06F
POPLAR BLUFF   PTCLDY    59  52  77 S6        30.08F
WEST PLAINS    CLOUDY    65  53  65 SE10      30.06F

$$



USA.gov is the U.S. government's official web portal to all federal, state and local government web resources and services.